Погода в Чешине

Польша     49°44′55″N   18°38′00″E
темп.,
°C
ветер,
м/с
пор.,
м/с
влажн.,
%
обл.,
%
осадки,
мм/ч
давл.,
гПа
погр.,
м
28 февраля, вс
вс2801:00+1зсз2594100 0.4 1037384
04:000ссз249695 0.1 1036194
07:00+1сз139594 0.1 1036248
10:00+1сз2386100 0.0 1035402
13:00+4зсз226885 0.1 1034551
16:00+5з23670 0.0 1032506
19:00+2ююз227918 0.0 103329
22:00+2з128326 0.0 103362
1 марта, пн
пн101:00+2сз259763 0.0 1034292
04:00+2с2495100 0.0 1033222
07:00+1с1395100 0.0 1035183
10:00+3ссз128998 0.0 1035238
13:00+5с227688 0.0 1035613
16:00+5св117695 0.0 1034510
19:00+2всв118952 0.0 103522
22:00+1ююв12900 0.0 103522
2 марта, вт
вт201:00+1ю22870 0.0 103625
04:00+1ю22840 0.0 103526
07:00+1ю23810 0.0 103534
10:00+8юз12590 0.0 1034297
13:00+11зсз22530 0.0 1033612
16:00+10з22640 0.0 1032188
19:00+5ю22790 0.0 103322
22:00+4ю22820 0.0 103322
3 марта, ср
ср301:00+3ю22810 0.0 103322
04:00+2ю22790 0.0 103222
07:00+2ю22770 0.0 103222
10:00+9з11570 0.0 1031251
13:00+11сз11490 0.0 1029495
16:00+10ссз11560 0.0 1027303
19:00+6ююз11740 0.0 102722
22:00+5ю22810 0.0 102729
4 марта, чт
чт401:00+3ю33830 0.0 102549
04:00+3ю358489 0.0 102392
07:00+2ю358471 0.0 102296
10:00+8ююз366622 0.0 1019430
13:00+12зюз485327 0.0 10171117
16:00+10зюз4862100 0.0 1015801
19:00+7ю3977100 0.0 1014349
22:00+7юз31084100 0.2 1013631